Overview Statistics Trail Chart Weather Telemetry Raw packets
 

This is the latest recevied weather packets stored in our database for station/object SV1JSO-13. If no packets are shown the sender has not sent any weather packets the latest 10 day(s).

<< 7 8 9 10 11 12 13 >>
Time Temp. Humidity Pressure Rain* Wind** Luminosity Snow
1788604501 31.67° C 27% 1010.5 hPa 0 mm - 752 W/m² -
1788604200 31.67° C 27% 1010.4 hPa 0 mm - 755 W/m² -
1788603901 31.67° C 26% 1010.5 hPa 0 mm - 751 W/m² -
1788603601 31.11° C 27% 1010.4 hPa 0 mm - 755 W/m² -
1788603301 31.67° C 26% 1010.5 hPa 0 mm - 751 W/m² -
1788603001 31.67° C 26% 1010.4 hPa 0 mm - 752 W/m² -
1788602701 31.67° C 26% 1010.6 hPa 0 mm - 745 W/m² -
1788602400 31.11° C 25% 1010.5 hPa 0 mm - 758 W/m² -
1788602101 31.67° C 26% 1010.6 hPa 0 mm - 739 W/m² -
1788601801 31.11° C 27% 1010.5 hPa 0 mm - 743 W/m² -
1788601501 31.11° C 26% 1010.6 hPa 0 mm - 731 W/m² -
1788601200 31.67° C 26% 1010.4 hPa 0 mm - 739 W/m² -
1788600901 31.11° C 27% 1010.6 hPa 0 mm - 725 W/m² -
1788600601 31.11° C 27% 1010.6 hPa 0 mm - 719 W/m² -
1788600301 31.11° C 27% 1010.4 hPa 0 mm - 716 W/m² -
1788600001 31.11° C 27% 1010.5 hPa 0 mm - 716 W/m² -
1788599700 30.56° C 27% 1010.5 hPa 0 mm - 703 W/m² -
1788599401 31.11° C 27% 1010.6 hPa 0 mm - 706 W/m² -
1788599101 31.11° C 27% 1010.5 hPa 0 mm - 692 W/m² -
1788598801 31.11° C 26% 1010.5 hPa 0 mm - 689 W/m² -
1788598501 30.56° C 26% 1010.6 hPa 0 mm - 687 W/m² -
1788598201 31.11° C 27% 1010.5 hPa 0 mm - 668 W/m² -
1788597901 31.11° C 29% 1010.8 hPa 0 mm - 657 W/m² -
1788597601 30.56° C 29% 1010.7 hPa 0 mm - 648 W/m² -
1788597301 30.56° C 29% 1010.6 hPa 0 mm - 644 W/m² -

* Rain latest hour (hover to see other rain measurements)
** Current wind speed in m/s (hover to see current wind gust speed)